Weather History for KCDD - November, 2011

Change the Weather History Date:

Wednesday, November 9, 2011

  Actual Average Record
Temperature  
Mean Temperature 29 °F -  
Max Temperature 41 °F 35 °F 64 °F (2010)
Min Temperature 17 °F 22 °F 15 °F (2014)
Degree Days  
Heating Degree Days 36    
Moisture  
Dew Point 23 °F    
Average Humidity 83    
Maximum Humidity 100    
Minimum Humidity 45    
Precipitation  
Precipitation 0.00 in - - ()
Sea Level Pressure  
Sea Level Pressure 29.98 in    
Wind  
Wind Speed 2 mph (West)    
Max Wind Speed 13 mph    
Max Gust Speed 18 mph    
Visibility 9 miles    
Events      
Averages and records for this station are not official NWS values.
T = Trace of Precipitation, MM = Missing Value Source: NWS Daily Summary

Daily Weather History Graph

Daily Weather History Graph

Search for Another Location

Airport or City:

Trip Planner

Search our weather history database for the weather conditions in past years. The results will help you decide how hot, cold, wet, or windy it might be!

Date:

Astronomy

Nov. 09, 2011 Rise Set
Actual Time 7:07 AM CST 4:39 PM CST
Civil Twilight 6:34 AM CST 5:12 PM CST
Nautical Twilight 5:56 AM CST 5:50 PM CST
Astronomical Twilight 5:20 AM CST 6:26 PM CST
Moon 3:50 PM CST (11/9) 6:03 AM CST (11/9)
Length of Visible Light 10h 38m
Length of Day
9h 31m
Waxing Gibbous, 99% of the Moon is Illuminated
Nov 9
Waxing Gibbous
Nov 10
Full
Nov 18
Last Quarter
Nov 25
New
Dec 2
First Quarter

Hourly Weather History & Observations

Time (CST) Temp. Windchill Dew Point Humidity Pressure Visibility Wind Dir Wind Speed Gust Speed Precip Events Conditions
12:01 AM 19.4 °F - 17.6 °F 93% 30.15 in 10.0 mi Calm Calm - N/A   Clear
12:21 AM 19.4 °F - 17.6 °F 93% 30.14 in 10.0 mi Calm Calm - N/A   Clear
1:01 AM 19.4 °F - 17.6 °F 93% 30.14 in 10.0 mi SE 1.2 mph - N/A   Clear
1:21 AM 19.4 °F - 19.4 °F 100% 30.14 in 10.0 mi SSE 1.2 mph - N/A   Clear
2:01 AM 21.2 °F - 21.2 °F 100% 30.13 in 10.0 mi SSE 1.2 mph - N/A   Scattered Clouds
2:21 AM 21.2 °F - 19.4 °F 93% 30.13 in 10.0 mi Calm Calm - N/A   Scattered Clouds
3:01 AM 21.2 °F - 19.4 °F 93% 30.12 in 10.0 mi Calm Calm - N/A   Scattered Clouds
3:21 AM 19.4 °F - 19.4 °F 100% 30.11 in 10.0 mi Calm Calm - N/A   Clear
4:01 AM 19.4 °F - 17.6 °F 93% 30.10 in 10.0 mi South 1.2 mph - N/A   Clear
6:41 AM 17.6 °F - 17.6 °F 100% 30.06 in 10.0 mi Calm Calm - N/A   Clear
7:01 AM 17.6 °F - 15.8 °F 93% 30.05 in 10.0 mi Calm Calm - N/A   Scattered Clouds
7:41 AM 17.6 °F - 17.6 °F 100% 30.06 in 10.0 mi South 1.2 mph - N/A   Clear
8:21 AM 19.4 °F - 17.6 °F 93% 30.05 in 10.0 mi SSE 2.3 mph - N/A   Clear
9:21 AM 28.4 °F - 24.8 °F 86% 30.03 in 10.0 mi South 2.3 mph - N/A   Clear
10:41 AM 35.6 °F - 24.8 °F 65% 30.02 in 10.0 mi West 2.3 mph - N/A   Clear
11:21 AM 37.4 °F - 24.8 °F 60% 30.00 in 10.0 mi WNW 1.2 mph - N/A   Clear
11:41 AM 39.2 °F 35.0 °F 24.8 °F 56% 29.98 in 10.0 mi NW 5.8 mph - N/A   Clear
12:01 PM 39.2 °F 35.9 °F 24.8 °F 56% 29.98 in 10.0 mi NW 4.6 mph - N/A   Clear
12:21 PM 39.2 °F 35.9 °F 23.0 °F 52% 29.97 in 10.0 mi West 4.6 mph - N/A   Clear
1:01 PM 41.0 °F - 21.2 °F 45% 29.94 in 10.0 mi WNW 2.3 mph - N/A   Clear
2:01 PM 41.0 °F 37.1 °F 21.2 °F 45% 29.91 in 10.0 mi NW 5.8 mph - N/A   Scattered Clouds
3:01 PM 37.4 °F 29.8 °F 24.8 °F 60% 29.91 in 10.0 mi NW 11.5 mph 18.4 mph N/A   Mostly Cloudy
3:21 PM 37.4 °F 33.8 °F 24.8 °F 60% 29.91 in 10.0 mi NW 4.6 mph 17.3 mph N/A   Scattered Clouds
4:01 PM 33.8 °F 24.8 °F 24.8 °F 70% 29.93 in 10.0 mi NW 12.7 mph 17.3 mph N/A   Mostly Cloudy
4:41 PM 30.2 °F 26.7 °F 24.8 °F 80% 29.93 in 10.0 mi NW 3.5 mph - N/A   Overcast
5:01 PM 30.2 °F 25.4 °F 24.8 °F 80% 29.93 in 10.0 mi West 4.6 mph - N/A   Overcast
5:21 PM 30.2 °F 26.7 °F 24.8 °F 80% 29.93 in 10.0 mi West 3.5 mph - N/A   Overcast
5:41 PM 30.2 °F 25.4 °F 24.8 °F 80% 29.93 in 10.0 mi West 4.6 mph - N/A   Mostly Cloudy
6:01 PM 30.2 °F 23.4 °F 24.8 °F 80% 29.92 in 10.0 mi West 6.9 mph - N/A   Mostly Cloudy
6:21 PM 30.2 °F 23.4 °F 26.6 °F 86% 29.92 in 10.0 mi West 6.9 mph - N/A   Mostly Cloudy
6:41 PM 30.2 °F 25.4 °F 26.6 °F 86% 29.91 in 10.0 mi West 4.6 mph - N/A   Mostly Cloudy
7:01 PM 30.2 °F - 26.6 °F 86% 29.91 in 7.0 mi West 2.3 mph - N/A   Mostly Cloudy
8:01 PM 28.4 °F 23.3 °F 26.6 °F 93% 29.89 in 5.0 mi West 4.6 mph - N/A   Mostly Cloudy
8:21 PM 28.4 °F - 26.6 °F 93% 29.88 in 3.0 mi West 2.3 mph - N/A   Overcast
8:41 PM 28.4 °F 24.6 °F 26.6 °F 93% 29.87 in 3.0 mi WNW 3.5 mph - N/A   Mostly Cloudy
9:01 PM 28.4 °F 24.6 °F 26.6 °F 93% 29.87 in 3.0 mi West 3.5 mph - N/A   Mostly Cloudy
9:21 PM 30.2 °F - 26.6 °F 86% 29.86 in 7.0 mi NW 2.3 mph - N/A   Scattered Clouds
9:41 PM 30.2 °F - 28.4 °F 93% 29.86 in 7.0 mi NNW 2.3 mph - N/A   Scattered Clouds
10:21 PM 30.2 °F 26.7 °F 28.4 °F 93% 29.86 in 10.0 mi West 3.5 mph - N/A   Mostly Cloudy
10:41 PM 30.2 °F - 28.4 °F 93% 29.85 in 10.0 mi West 2.3 mph - N/A   Mostly Cloudy
11:21 PM 30.2 °F - 28.4 °F 93% 29.84 in 5.0 mi Calm Calm - N/A   Mostly Cloudy